TimePST,TemperatureF,Dew PointF,Humidity,Sea Level PressureIn,VisibilityMPH,Wind Direction,Wind SpeedMPH,Gust SpeedMPH,PrecipitationIn,Events,Conditions,WindDirDegrees,DateUTC
12:56 AM,32.0,28.9,88,30.27,10.0,Calm,Calm,-,N/A,,Clear,0,2013-12-16 08:56:00
1:56 AM,32.0,28.9,88,30.27,10.0,Calm,Calm,-,N/A,,Clear,0,2013-12-16 09:56:00
2:56 AM,33.1,30.0,89,30.26,10.0,Calm,Calm,-,N/A,,Clear,0,2013-12-16 10:56:00
3:56 AM,33.1,28.9,85,30.25,10.0,Calm,Calm,-,N/A,,Clear,0,2013-12-16 11:56:00
4:56 AM,30.9,28.0,89,30.25,10.0,Calm,Calm,-,N/A,,Clear,0,2013-12-16 12:56:00
5:56 AM,30.9,28.9,92,30.25,10.0,Calm,Calm,-,N/A,,Clear,0,2013-12-16 13:56:00
6:56 AM,30.0,27.0,88,30.25,10.0,Calm,Calm,-,N/A,,Clear,0,2013-12-16 14:56:00
7:56 AM,28.9,27.0,92,30.26,8.0,Calm,Calm,-,N/A,,Clear,0,2013-12-16 15:56:00
8:56 AM,37.0,33.1,86,30.26,10.0,Calm,Calm,-,N/A,,Clear,0,2013-12-16 16:56:00
9:56 AM,45.0,34.0,65,30.26,10.0,Calm,Calm,-,N/A,,Clear,0,2013-12-16 17:56:00
10:56 AM,51.1,33.1,50,30.24,10.0,Calm,Calm,-,N/A,,Clear,0,2013-12-16 18:56:00
11:56 AM,57.9,32.0,37,30.20,10.0,Calm,Calm,-,N/A,,Clear,0,2013-12-16 19:56:00
12:56 PM,64.0,30.9,29,30.17,10.0,NNW,3.5,-,N/A,,Clear,340,2013-12-16 20:56:00
1:56 PM,66.9,32.0,27,30.13,10.0,West,3.5,-,N/A,,Clear,280,2013-12-16 21:56:00
2:56 PM,68.0,35.1,30,30.12,10.0,West,3.5,-,N/A,,Clear,280,2013-12-16 22:56:00
3:56 PM,61.0,37.0,41,30.13,10.0,West,3.5,-,N/A,,Clear,270,2013-12-16 23:56:00
4:56 PM,55.0,36.0,49,30.14,10.0,Calm,Calm,-,N/A,,Clear,0,2013-12-17 00:56:00
5:56 PM,51.1,36.0,56,30.15,9.0,Calm,Calm,-,N/A,,Clear,0,2013-12-17 01:56:00
6:56 PM,46.0,36.0,68,30.17,10.0,Calm,Calm,-,N/A,,Clear,0,2013-12-17 02:56:00
7:56 PM,44.1,35.1,71,30.18,7.0,Calm,Calm,-,N/A,,Clear,0,2013-12-17 03:56:00
8:56 PM,42.1,34.0,73,30.18,6.0,Calm,Calm,-,N/A,,Haze,0,2013-12-17 04:56:00
9:56 PM,37.9,33.1,83,30.18,6.0,Calm,Calm,-,N/A,,Haze,0,2013-12-17 05:56:00
10:56 PM,39.0,33.1,79,30.18,5.0,Calm,Calm,-,N/A,,Haze,0,2013-12-17 06:56:00
11:56 PM,37.0,32.0,82,30.19,5.0,Calm,Calm,-,N/A,,Haze,0,2013-12-17 07:56:00